Date,TemperatureHighF,TemperatureAvgF,TemperatureLowF,DewpointHighF,DewpointAvgF,DewpointLowF,HumidityHigh,HumidityAvg,HumidityLow,PressureMaxIn,PressureMinIn,WindSpeedMaxMPH,WindSpeedAvgMPH,GustSpeedMaxMPH,PrecipitationSumIn
2013-1-1,39,35,25,38,30,17,98,83,64,29.97,29.78,7,2,0,0.02
2013-1-2,33,27,18,24,19,15,98,73,58,30.13,29.96,10,1,0,0.10
2013-1-3,32,27,18,26,21,16,98,80,61,30.16,30.01,4,0,0,0.00
2013-1-4,39,34,29,31,28,26,92,79,65,30.03,29.88,7,2,0,0.00
2013-1-5,42,34,26,31,28,24,98,78,60,30.22,29.96,11,1,0,0.00
2013-1-6,46,37,29,39,33,29,98,88,64,30.18,29.91,4,1,0,0.00
2013-1-7,44,34,24,38,29,24,98,85,55,30.35,30.00,6,1,0,0.00
2013-1-8,47,33,21,40,30,20,98,91,70,30.38,30.29,6,0,0,0.00
2013-1-9,45,35,25,44,35,24,98,98,96,30.35,30.11,4,1,0,0.00
2013-1-10,47,40,31,43,32,30,98,74,53,30.50,30.17,9,2,0,0.00
2013-1-11,42,36,28,42,36,28,98,98,95,30.50,30.06,1,0,0,2.87
2013-1-12,47,44,41,46,44,41,98,98,98,30.12,30.02,0,0,0,0.14
2013-1-13,48,46,44,47,45,44,98,98,98,30.10,29.96,0,0,0,0.06
2013-1-14,55,48,38,54,46,37,98,92,67,30.25,29.85,7,1,0,0.39
2013-1-15,38,36,34,37,35,33,98,95,86,30.31,30.17,5,1,0,0.46
2013-1-16,34,33,32,34,32,31,98,98,98,30.19,29.78,2,0,0,0.94
2013-1-17,43,37,33,40,35,31,98,93,72,30.05,29.85,5,0,0,2.10
2013-1-18,33,26,22,31,18,11,93,70,47,30.43,29.97,7,1,0,0.00
2013-1-19,49,39,25,38,31,19,98,75,59,30.35,29.87,7,2,0,0.24
2013-1-20,53,41,29,41,30,14,98,70,32,29.99,29.63,12,2,0,0.00
2013-1-21,32,28,21,26,20,13,98,73,54,30.05,29.78,5,0,0,0.00
2013-1-22,26,19,12,25,6,-4,96,56,35,30.16,29.78,10,3,0,0.00
2013-1-23,19,13,8,8,1,-2,98,59,42,30.21,30.11,7,1,0,0.00
2013-1-24,23,14,-11,10,4,-46,98,69,15,30.36,30.09,17,3,0,0.00
2013-1-25,25,18,12,21,10,3,98,73,53,30.37,30.02,4,0,0,0.00
2013-1-26,28,18,8,17,11,7,98,77,50,30.33,30.00,7,2,0,0.00
2013-1-27,34,23,-37,21,14,-67,98,72,15,30.48,30.33,7,1,0,0.00
2013-1-28,33,26,21,33,25,20,98,98,94,30.45,29.95,0,0,0,0.04
2013-1-29,50,40,33,50,39,33,98,98,98,30.10,29.94,0,0,0,0.99
2013-1-30,55,46,38,55,46,37,98,98,98,30.05,29.30,1,0,0,0.76
2013-1-31,60,46,30,59,38,18,98,75,49,29.69,28.96,13,6,0,4.48
2013-2-2,30,26,21,24,18,12,98,73,49,30.24,30.01,7,1,0,0.00
2013-2-3,32,25,17,30,23,17,98,93,74,30.01,29.74,4,0,0,0.00
2013-2-4,31,26,21,25,17,14,98,70,53,29.92,29.75,7,2,0,0.00
2013-2-5,32,28,25,31,28,21,98,96,80,29.93,29.86,4,0,0,0.83
2013-2-6,39,32,23,35,24,10,98,77,46,30.32,29.87,5,1,0,0.12
2013-2-7,34,26,19,28,19,10,98,75,50,30.48,30.31,4,0,0,0.00
2013-2-8,33,31,27,33,31,26,98,98,98,30.30,29.60,7,1,0,0.00
2013-2-9,32,29,26,28,24,14,98,84,50,30.07,29.71,0,0,0,0.00
2013-2-10,34,25,16,27,22,12,98,88,57,30.39,30.29,0,0,0,0.00
2013-2-11,40,34,26,39,33,25,98,98,98,30.28,29.61,0,0,0,4.16
2013-2-12,45,39,29,40,35,28,98,86,64,29.91,29.66,8,1,0,0.96
2013-2-13,29,28,26,28,27,26,98,98,98,29.90,29.87,0,0,0,0.00
2013-2-15,41,40,39,41,40,39,98,98,98,29.92,29.91,3,1,0,0.00
2013-2-16,39,35,30,38,32,21,98,90,68,29.93,29.70,6,2,0,0.09
2013-2-17,31,26,16,20,11,4,67,54,41,29.94,29.61,18,5,0,0.00
2013-2-18,35,25,16,24,12,5,90,59,41,30.18,29.95,10,2,0,0.00
2013-2-19,46,35,22,44,33,20,98,93,68,30.15,29.62,9,0,0,0.37
2013-2-20,37,30,25,36,22,15,98,71,54,29.93,29.66,10,4,0,0.01
2013-2-21,34,27,23,21,18,16,86,68,57,30.26,29.92,10,4,0,0.00
2013-2-22,40,32,22,34,29,20,98,89,69,30.36,30.23,6,0,0,0.00
2013-2-23,41,36,33,40,36,33,98,98,98,30.23,29.77,5,0,0,0.20
2013-2-24,46,38,32,45,36,30,98,92,76,29.91,29.68,8,2,0,0.01
2013-2-25,46,37,25,39,33,25,98,87,64,30.19,29.92,6,1,0,0.00
2013-2-26,45,38,27,44,38,27,98,98,98,30.25,29.89,5,1,0,0.19
2013-2-27,46,42,36,46,41,35,98,98,98,29.87,29.44,12,2,0,1.03
2013-2-28,49,42,37,48,40,36,98,92,73,29.57,29.48,5,0,0,0.00
2013-3-1,46,39,32,40,35,31,98,88,68,29.73,29.55,9,2,0,0.00
2013-3-2,41,36,31,34,31,30,98,84,71,29.73,29.64,7,1,0,0.00
2013-3-3,40,32,28,30,25,22,98,76,58,29.71,29.60,7,3,0,0.00
2013-3-4,40,33,27,28,25,-1,91,74,19,29.86,29.71,11,4,0,0.00
2013-3-5,48,38,31,36,31,26,95,77,58,29.97,29.85,8,2,0,0.00
2013-3-6,44,40,35,44,38,34,98,95,83,29.93,29.82,18,4,0,0.04
2013-3-7,40,36,32,39,35,32,98,95,82,30.04,29.88,10,3,0,0.15
2013-3-8,42,36,32,41,35,31,98,97,88,30.15,29.96,6,1,0,0.67
2013-3-9,55,42,30,36,31,22,98,68,32,30.27,30.14,9,2,0,0.02
2013-3-10,53,38,26,46,36,25,98,95,72,30.35,30.24,3,0,0,0.00
2013-3-11,56,46,38,56,46,37,98,98,98,30.27,30.04,6,0,0,0.00
2013-3-12,55,51,42,54,50,41,98,98,98,30.04,29.61,8,1,0,1.48
2013-3-13,42,40,39,41,40,38,98,98,98,29.80,29.77,1,0,0,0.00
2013-3-16,35,33,32,35,32,32,98,98,98,29.86,29.73,0,0,0,0.06
2013-3-17,38,32,27,32,25,19,98,75,50,30.26,29.86,8,1,0,0.00
2013-3-18,37,30,24,32,23,14,98,75,56,30.37,29.99,5,1,0,0.00
2013-3-19,43,36,32,43,36,32,98,98,98,29.98,29.65,5,1,0,1.17
2013-3-20,44,37,29,36,29,25,98,75,49,29.82,29.72,9,2,0,0.00
2013-3-21,40,35,31,33,23,18,98,65,46,29.79,29.57,7,2,0,0.00
2013-3-22,41,34,27,31,25,20,93,70,56,29.82,29.67,9,1,0,0.00
2013-3-23,46,38,29,32,28,25,98,67,50,29.88,29.76,9,3,0,0.00
2013-3-24,48,38,26,32,29,25,98,70,51,29.89,29.65,9,1,0,0.00
2013-3-25,45,40,36,43,37,31,98,89,61,29.66,29.41,8,1,0,0.02
2013-3-26,44,38,33,38,36,33,98,93,70,29.80,29.53,0,0,0,0.00
2013-3-27,53,43,33,41,34,29,98,72,41,29.92,29.80,9,2,0,0.00
2013-3-28,51,44,34,41,38,34,98,81,64,30.06,29.90,9,2,0,0.00
2013-3-29,56,46,37,39,36,34,98,70,48,30.09,30.00,7,2,0,0.00
2013-3-30,59,45,30,42,33,28,98,69,33,30.12,30.00,7,1,0,0.00
2013-3-31,57,44,29,50,40,29,98,87,52,30.08,29.62,6,0,0,0.35
2013-4-1,63,47,36,57,41,21,98,83,45,29.86,29.55,10,2,0,0.02
2013-4-2,44,37,29,24,20,17,78,52,36,30.04,29.86,9,3,0,0.00
2013-4-3,47,38,32,24,20,17,63,49,34,30.25,30.03,9,3,0,0.00
2013-4-4,57,42,26,38,29,21,98,62,42,30.35,30.03,7,1,0,0.00
2013-4-5,63,49,39,38,31,23,91,54,24,30.02,29.65,12,2,0,0.00
2013-4-6,55,43,34,37,21,-32,98,47,2,30.26,29.95,7,2,0,0.00
2013-4-7,62,48,36,54,43,36,98,84,55,30.25,29.92,5,0,0,0.00
2013-4-8,77,58,41,57,49,40,98,78,39,30.03,29.91,5,1,0,0.00
2013-4-9,84,66,50,64,52,43,98,68,24,29.94,29.83,8,1,0,0.00
2013-4-10,78,63,52,65,59,52,98,88,61,29.89,29.74,8,1,0,0.77
2013-4-11,58,58,58,58,58,57,98,98,98,29.79,29.72,1,0,0,0.01
2013-4-27,74,64,51,42,39,32,69,41,29,30.38,30.21,5,1,0,0.00
2013-4-28,74,57,41,53,45,39,98,68,39,30.27,30.14,5,0,0,0.00
2013-4-29,57,55,53,56,54,34,98,97,46,30.19,30.14,1,0,0,0.07
2013-4-30,72,59,47,60,48,36,98,71,28,30.28,30.16,5,0,0,0.00
2013-5-1,73,56,38,54,46,37,98,74,36,30.44,30.28,4,0,0,0.00
2013-5-2,79,59,41,57,48,40,98,73,32,30.43,30.26,5,0,0,0.00
2013-5-3,71,58,48,55,49,44,98,74,41,30.41,30.29,4,0,0,0.00
2013-5-4,75,56,42,57,50,41,98,82,48,30.33,30.17,8,0,0,0.00
2013-5-5,68,53,39,56,48,39,98,85,50,30.25,30.15,4,0,0,0.00
2013-5-6,73,57,41,68,55,41,98,94,69,30.22,30.08,4,0,0,0.00
2013-5-7,77,62,46,71,60,46,98,93,76,30.11,30.02,3,0,0,0.00
2013-5-8,65,61,54,64,60,53,98,98,98,30.05,29.91,2,0,0,2.56
2013-5-9,66,59,51,66,58,51,98,98,98,29.95,29.82,3,0,0,1.21
2013-5-10,82,66,50,71,61,50,98,87,58,29.94,29.82,4,0,0,0.00
2013-5-11,71,64,61,70,64,61,98,98,98,29.84,29.63,4,0,0,0.87
2013-5-12,69,61,51,62,50,36,98,71,38,29.87,29.58,7,2,0,0.06
2013-5-13,57,50,42,45,39,33,98,69,44,30.05,29.87,6,1,0,0.00
2013-5-14,61,50,36,47,39,31,98,71,32,30.07,29.95,7,1,0,0.00
2013-5-15,69,57,40,68,56,40,98,95,70,30.01,29.60,5,0,0,0.00
2013-5-16,83,70,56,68,62,55,98,79,51,29.76,29.63,7,1,0,0.00
2013-5-17,74,64,55,62,53,48,98,68,45,30.15,29.77,5,1,0,0.00
2013-5-18,68,58,48,65,56,48,98,93,71,30.25,30.14,5,0,0,0.04
2013-5-19,60,58,56,59,57,56,98,98,98,30.27,30.13,0,0,0,0.58
2013-5-20,80,68,58,79,68,58,98,98,98,30.12,29.89,5,0,0,0.00
2013-5-21,90,76,61,88,75,61,98,98,92,29.91,29.75,6,1,0,0.00
2013-5-22,81,71,61,80,71,61,98,98,98,29.87,29.75,3,0,0,0.00
2013-5-23,79,71,67,78,70,66,98,98,98,29.82,29.69,6,0,0,2.60
2013-5-24,66,55,45,66,55,44,98,98,98,29.89,29.60,7,1,0,0.57
2013-5-25,52,49,44,52,48,43,98,98,98,29.94,29.83,9,3,0,0.74
2013-5-26,66,56,47,56,49,45,98,80,50,30.14,29.88,8,3,0,0.00
2013-5-27,76,61,42,59,49,41,98,70,34,30.19,30.04,4,1,0,0.00
2013-5-28,68,58,50,68,57,49,98,97,83,30.16,30.07,2,0,0,0.89
2013-5-29,85,70,58,84,69,58,98,98,98,30.08,29.92,5,1,0,0.00
2013-5-30,93,80,67,89,76,67,98,89,58,30.06,29.97,4,0,0,0.00
2013-5-31,94,82,67,92,79,67,98,90,58,30.06,29.91,5,0,0,0.00
2013-6-1,92,80,66,91,79,65,98,97,85,29.96,29.82,4,1,0,0.00
2013-6-2,89,80,74,89,80,73,98,98,98,29.84,29.69,8,2,0,0.00
2013-6-3,81,73,67,81,72,66,98,98,94,29.82,29.73,3,0,0,0.28
2013-6-4,75,66,57,66,59,54,98,80,49,30.05,29.83,5,1,0,0.00
2013-6-5,77,64,49,70,59,49,98,85,59,30.15,30.05,5,0,0,0.00
2013-6-6,73,63,53,73,62,53,98,96,77,30.09,29.96,5,0,0,0.24
2013-6-7,63,61,59,62,60,58,98,98,98,29.95,29.57,2,0,0,3.79
2013-6-8,79,67,57,78,67,56,98,98,98,29.99,29.53,4,0,0,0.13
2013-6-9,82,71,59,81,70,58,98,97,86,30.11,29.99,5,0,0,0.00
2013-6-10,72,66,62,71,65,62,98,98,98,30.10,29.77,3,0,0,1.37
2013-6-11,80,71,63,80,70,62,98,98,98,29.76,29.54,7,1,0,0.28
2013-6-12,75,69,62,74,69,62,98,98,93,29.78,29.64,10,2,0,0.00
2013-6-13,64,61,57,63,60,56,98,98,98,29.78,29.41,5,0,0,0.67
2013-6-14,72,62,53,72,61,53,98,98,98,29.81,29.46,5,1,0,0.61
2013-6-15,80,70,58,76,64,58,98,85,56,29.94,29.82,4,0,0,0.00
2013-6-16,82,70,56,80,69,56,98,96,80,29.93,29.69,8,1,0,0.00
2013-6-17,88,75,64,87,74,63,98,98,98,29.84,29.75,6,1,0,0.00
2013-6-18,85,70,63,84,70,63,98,98,98,29.83,29.75,3,0,0,0.75
2013-6-19,75,68,61,70,66,60,98,93,75,30.10,29.98,0,0,0,0.00
2013-6-20,84,68,55,79,67,54,98,96,65,30.20,30.10,4,0,0,0.00
2013-6-21,86,72,58,83,71,57,98,97,82,30.24,30.15,4,0,0,0.00
2013-6-22,86,73,59,86,73,59,98,98,94,30.20,30.06,5,0,0,0.00
2013-6-23,90,77,63,89,76,63,98,98,98,30.12,29.98,6,1,0,0.00
2013-6-24,94,82,72,93,81,72,98,97,72,30.00,29.86,6,1,0,0.00
2013-6-25,93,81,68,92,80,68,98,98,98,29.94,29.73,5,1,0,0.00
2013-6-26,85,80,74,84,79,74,98,98,98,29.78,29.71,5,0,0,0.00
2013-6-27,88,78,72,88,78,71,98,98,98,29.76,29.47,4,0,0,1.04
2013-6-28,87,79,72,86,78,72,98,98,98,29.49,29.39,6,1,0,0.01
2013-6-29,86,77,68,86,76,68,98,98,98,29.63,29.42,3,0,0,0.00
2013-6-30,87,76,69,86,76,68,98,98,98,29.85,29.63,3,0,0,0.00
2013-7-1,78,75,72,78,74,71,98,98,98,29.99,29.83,4,0,0,2.47
2013-7-2,85,78,74,84,77,73,98,98,98,30.11,29.98,4,0,0,0.01
2013-7-3,84,78,74,84,78,73,98,98,98,30.18,30.10,3,0,0,0.06
2013-7-4,91,83,75,90,82,74,98,98,98,30.19,30.08,5,1,0,0.00
2013-7-5,93,84,75,92,84,74,98,98,98,30.15,30.02,5,1,0,0.11
2013-7-6,94,84,76,93,84,76,98,98,98,30.07,29.95,3,0,0,0.00
2013-7-7,96,85,74,95,84,74,98,98,98,30.00,29.85,5,0,0,0.19
2013-7-8,89,80,70,89,79,70,98,98,98,29.97,29.89,4,0,0,0.00
2013-7-9,90,81,71,89,80,70,98,98,98,30.01,29.92,4,0,0,0.00
2013-7-10,87,81,76,86,81,75,98,98,98,29.95,29.73,6,1,0,0.31
2013-7-11,87,79,72,86,79,72,98,98,98,29.86,29.73,3,0,0,0.02
2013-7-12,80,74,68,80,73,67,98,98,98,30.05,29.86,6,0,0,1.71
2013-7-13,81,73,67,80,73,66,98,98,98,30.22,30.05,2,0,0,0.51
2013-7-14,92,82,73,92,82,73,98,98,98,30.28,30.16,3,0,0,0.00
2013-7-15,94,85,77,93,84,76,98,98,98,30.19,30.06,5,0,0,0.00
2013-7-16,95,84,72,94,83,72,98,98,98,30.15,30.06,3,0,0,0.00
2013-7-17,97,85,74,96,84,73,98,98,98,30.14,29.99,3,0,0,0.00
2013-7-18,97,86,76,96,86,76,98,98,98,30.00,29.88,4,0,0,0.00
2013-7-19,97,88,79,96,88,78,98,98,98,29.91,29.71,6,1,0,0.00
2013-7-20,93,86,80,92,85,79,98,98,98,29.77,29.65,7,1,0,0.00
2013-7-21,88,80,74,87,80,73,98,98,98,29.90,29.77,2,0,0,0.00
2013-7-22,85,76,72,84,76,71,98,98,98,29.90,29.74,3,0,0,7.10
2013-7-23,88,78,73,88,78,72,98,98,98,29.74,29.48,4,0,0,6.93
2013-7-24,81,75,68,80,75,68,98,98,98,29.88,29.54,5,1,0,0.00
2013-7-25,70,66,63,69,65,62,98,98,98,30.00,29.88,4,1,0,0.00
2013-7-26,83,74,66,83,73,65,98,98,98,29.98,29.92,6,0,0,0.00
2013-7-27,84,74,63,84,73,62,98,98,98,29.99,29.89,4,0,0,0.00
2013-7-28,80,72,66,79,72,65,98,98,98,29.93,29.86,3,0,0,1.09
2013-7-29,85,76,69,84,75,68,98,98,98,30.04,29.89,5,0,0,0.05
2013-7-30,81,71,59,80,70,59,98,98,98,30.11,30.04,5,0,0,0.00
2013-7-31,83,72,60,82,71,59,98,98,98,30.10,29.97,2,0,0,0.00
2013-8-1,75,69,67,74,68,66,98,98,98,29.98,29.77,4,0,0,5.51
2013-8-2,84,74,65,84,74,64,98,98,98,29.84,29.72,5,0,0,0.04
2013-8-3,79,71,66,78,70,65,98,98,98,29.85,29.77,4,0,0,0.63
2013-8-4,79,70,60,78,70,60,98,98,98,29.90,29.79,9,1,0,0.00
2013-8-5,79,68,58,74,66,57,98,93,76,29.99,29.90,5,0,0,0.00
2013-8-6,83,70,56,82,69,55,98,98,98,30.06,29.98,3,0,0,0.00
2013-8-7,80,72,65,79,71,65,98,98,98,30.08,30.00,4,0,0,0.00
2013-8-8,84,74,70,83,73,69,98,98,98,30.01,29.94,2,0,0,3.57
2013-8-9,86,76,72,86,76,71,98,98,98,29.95,29.72,5,0,0,7.56
2013-8-10,84,74,66,83,73,65,98,98,98,29.99,29.79,5,0,0,0.06
2013-8-11,80,70,58,79,70,58,98,98,98,30.06,29.96,2,0,0,0.00
2013-8-12,85,74,68,84,73,67,98,98,98,29.97,29.86,1,0,0,0.61
2013-8-13,79,71,67,78,70,66,98,98,98,29.87,29.63,6,0,0,3.52
2013-8-14,74,66,55,73,65,55,98,98,98,29.99,29.69,8,1,0,0.13
2013-8-15,77,68,55,76,67,54,98,98,98,30.08,29.99,5,0,0,0.00
2013-8-16,81,68,55,80,67,55,98,98,98,30.15,30.07,1,0,0,0.00
2013-8-17,84,70,56,83,69,56,98,98,98,30.22,30.15,3,0,0,0.00
2013-8-18,77,69,62,76,68,62,98,98,98,30.21,30.07,0,0,0,0.00
2013-8-19,80,70,61,79,70,61,98,98,98,30.07,29.96,3,0,0,0.00
2013-8-20,87,74,61,86,74,61,98,98,98,30.07,29.98,3,0,0,0.00
2013-8-21,90,76,64,89,75,63,98,98,98,30.12,29.99,4,0,0,0.00
2013-8-22,75,72,68,75,71,67,98,98,98,30.00,29.81,1,0,0,0.97
2013-8-23,82,73,65,81,72,65,98,98,98,30.04,29.81,6,0,0,0.00
2013-8-24,81,69,57,81,68,57,98,98,98,30.29,30.05,4,0,0,0.00
2013-8-25,83,70,56,82,69,55,98,98,98,30.34,30.17,3,0,0,0.00
2013-8-26,80,73,67,79,72,66,98,98,98,30.17,29.85,3,0,0,0.12
2013-8-27,86,76,70,86,76,69,98,98,98,29.84,29.75,3,0,0,0.02
2013-8-28,88,73,67,87,73,66,98,98,98,29.84,29.78,4,0,0,0.14
2013-8-29,81,73,69,80,72,68,98,98,98,29.97,29.83,1,0,0,0.07
2013-8-30,86,76,69,86,75,68,98,98,98,29.97,29.79,4,0,0,0.00
2013-8-31,86,79,74,86,79,73,98,98,98,29.80,29.71,4,0,0,0.00
2013-9-1,82,77,71,81,76,71,98,98,98,29.80,29.72,0,0,0,2.30
2013-9-2,81,76,71,80,75,71,98,98,98,29.74,29.64,0,0,0,1.08
2013-9-3,79,72,65,79,71,64,98,98,98,29.83,29.64,3,0,0,0.15
2013-9-4,82,70,61,82,70,60,98,98,98,29.94,29.82,5,1,0,0.00
2013-9-5,76,68,57,76,68,57,98,98,98,30.10,29.85,7,1,0,0.00
2013-9-6,72,62,55,71,61,54,98,98,98,30.20,30.08,4,0,0,0.00
2013-9-7,80,65,48,79,64,48,98,98,98,30.08,29.83,3,0,0,0.00
2013-9-8,80,70,60,80,70,60,98,98,98,30.02,29.76,7,1,0,0.00
2013-9-9,73,64,60,72,64,60,98,98,98,30.19,30.02,2,0,0,0.00
2013-9-10,85,75,66,84,74,66,98,98,98,30.10,29.98,6,1,0,0.09
2013-9-11,95,85,74,94,85,74,98,98,98,30.05,29.89,5,0,0,0.00
2013-9-12,87,76,69,87,76,68,98,98,98,29.92,29.61,10,0,0,2.33
2013-9-13,76,67,58,75,67,58,98,98,98,29.79,29.56,8,1,0,0.09
2013-9-14,66,58,50,65,57,50,98,98,98,30.07,29.79,7,1,0,0.00
2013-9-15,71,58,45,70,57,45,98,98,98,30.16,30.02,3,0,0,0.00
2013-9-16,72,62,55,72,61,54,98,98,98,30.20,29.97,5,0,0,0.00
2013-9-17,64,55,48,64,54,47,98,98,98,30.39,30.21,7,1,0,0.00
2013-9-18,72,57,43,71,56,42,98,98,98,30.30,30.12,3,0,0,0.00
2013-9-19,76,60,45,76,60,45,98,98,98,30.14,29.99,3,0,0,0.00
2013-9-20,80,63,49,79,62,48,98,98,98,30.04,29.92,3,0,0,0.00
2013-9-21,77,65,52,77,64,51,98,98,98,29.96,29.59,4,0,0,1.65
2013-9-22,68,61,54,68,61,53,98,98,98,29.86,29.57,9,1,0,1.64
2013-9-23,65,55,46,64,55,45,98,98,98,29.99,29.85,5,1,0,0.00
2013-9-24,71,56,42,71,55,41,98,98,98,30.00,29.80,6,0,0,0.00
2013-9-25,72,57,44,72,56,43,98,98,98,29.90,29.81,5,0,0,0.00
2013-9-26,71,59,49,70,59,48,98,98,98,30.04,29.88,2,0,0,0.00
2013-9-27,68,59,49,68,58,49,98,98,98,30.21,30.04,3,0,0,0.00
2013-9-28,74,63,56,73,62,55,98,98,98,30.23,30.19,0,0,0,0.00
2013-9-29,73,59,48,72,58,48,98,98,98,30.18,30.02,1,0,0,0.00
2013-9-30,74,59,47,73,58,47,98,98,98,30.03,29.90,3,0,0,0.00
2013-10-1,80,63,48,79,62,47,98,98,98,29.95,29.82,2,0,0,0.00
2013-10-2,83,67,54,82,67,53,98,98,98,29.95,29.84,5,0,0,0.00
2013-10-3,77,65,54,76,65,53,98,98,98,30.07,29.95,2,0,0,0.00
2013-10-4,86,70,59,85,70,59,98,98,98,30.00,29.89,3,0,0,0.00
2013-10-5,75,68,65,74,68,64,98,98,98,30.04,29.96,2,0,0,0.00
2013-10-6,68,67,66,68,67,65,98,98,98,30.04,29.98,0,0,0,0.00
2013-10-7,75,67,56,75,66,56,98,98,98,29.97,29.66,6,0,0,1.70
2013-10-8,67,56,49,66,55,48,98,98,98,30.28,29.93,5,0,0,0.04
2013-10-9,64,55,48,63,54,47,98,98,98,30.36,30.25,4,0,0,0.00
2013-10-10,54,53,53,53,53,52,98,98,98,30.25,30.21,3,0,0,0.00
2013-10-11,68,65,60,67,65,59,98,98,98,30.04,29.96,4,0,0,0.00
2013-10-12,74,64,58,73,64,58,98,98,98,30.24,30.02,4,1,0,0.00
2013-10-13,66,58,53,66,58,52,98,98,98,30.35,30.24,5,1,0,0.00
2013-10-14,66,57,50,65,56,49,98,98,98,30.32,30.18,1,0,0,0.00
2013-10-15,72,57,47,71,57,46,98,98,98,30.21,30.06,2,0,0,0.00
2013-10-16,68,62,50,67,61,50,98,98,98,30.03,29.86,0,0,0,0.00
2013-10-17,75,66,61,74,66,61,98,98,98,29.85,29.62,4,0,0,0.13
2013-10-18,68,61,49,67,60,48,98,98,98,29.91,29.60,7,1,0,0.00
2013-10-19,64,53,41,63,53,41,98,98,98,29.93,29.68,3,0,0,0.00
2013-10-20,63,53,43,63,53,43,98,98,98,30.01,29.69,8,1,0,0.00
2013-10-21,67,52,37,66,51,36,98,98,98,30.10,29.92,4,0,0,0.00
2013-10-22,64,54,42,64,53,42,98,98,98,29.92,29.68,4,0,0,0.00
2013-10-23,56,46,38,55,46,38,98,98,98,29.75,29.55,4,0,0,0.00
2013-10-24,55,46,38,54,46,37,98,98,98,29.95,29.69,5,1,0,0.00
2013-10-25,52,42,32,52,41,32,98,98,98,30.17,29.95,7,1,0,0.00
2013-10-26,55,44,30,54,43,29,98,98,98,30.17,29.83,8,1,0,0.00
2013-10-27,54,49,40,53,48,40,98,98,98,29.91,29.79,6,1,0,0.00